|
NORAD ID: 10525 Int'l Code: 1977-119D
Perigee: 692.3 km
Apogee: 713.0 km
Inclination: 74.0 °
Period: 98.7 minutes
Semi major axis: 7073 km
Launch date: December 16, 1977
Source: Commonwealth of Independent States (former USSR) (CIS)
Note: This is SATELLITE DEBRIS
Two Line Element Set (TLE):
1 10525U 77119D 13168.29833691 .00000659 00000-0 14571-3 0 1913
2 10525 074.0250 254.2829 0014637 023.8391 336.3449 14.59275199868389
Source:
NASA's NSSDC Master Catalog entry for SL-8 DEB
|